Hourly Weather Siurowki

Today, 3 July, Friday

Time Temperature Precipitation Wind Pressure Humidity
00:00 +15°C° 0.2 mm 0 mps 692 mmHg 93%
01:00 +15°C° 0.2 mm 1 mps 692 mmHg 93%
02:00 +14°C° 0.3 mm 0 mps 692 mmHg 93%
03:00 +14°C° 0.3 mm 0 mps 692 mmHg 93%
04:00 +14°C° 0.3 mm 0 mps 692 mmHg 93%
05:00 +16°C° 0.7 mm 1 mps 692 mmHg 92%
06:00 +18°C° 0.7 mm 1 mps 693 mmHg 91%
07:00 +19°C° 0.7 mm 1 mps 693 mmHg 90%
08:00 +19°C° 0.8 mm 1 mps 694 mmHg 89%
09:00 +18°C° 0.8 mm 2 mps 694 mmHg 89%
10:00 +18°C° 0.8 mm 2 mps 694 mmHg 88%
11:00 +19°C° 0.1 mm 2 mps 694 mmHg 83%
12:00 +19°C° 0.1 mm 3 mps 694 mmHg 78%
13:00 +19°C° 0.1 mm 3 mps 694 mmHg 73%
14:00 +18°C° 0.1 mm 2 mps 694 mmHg 79%
15:00 +17°C° 0.1 mm 2 mps 694 mmHg 85%
16:00 +16°C° 0.1 mm 1 mps 694 mmHg 91%
17:00 +16°C° 0 mm 1 mps 694 mmHg 91%
18:00 +16°C° 0 mm 1 mps 694 mmHg 91%
19:00 +16°C° 0 mm 1 mps 695 mmHg 92%
20:00 +15°C° 0 mm 1 mps 695 mmHg 93%
21:00 +14°C° 0 mm 1 mps 695 mmHg 93%
22:00 +13°C° 0 mm 1 mps 695 mmHg 94%
23:00 +13°C° 0 mm 1 mps 695 mmHg 95%

Tomorrow, 4 July, Saturday

Time Temperature Precipitation Wind Pressure Humidity
00:00 +13°C° 0 mm 1 mps 695 mmHg 95%
01:00 +12°C° 0 mm 1 mps 696 mmHg 95%
02:00 +12°C° 0 mm 1 mps 695 mmHg 95%
03:00 +11°C° 0 mm 0 mps 695 mmHg 95%
04:00 +11°C° 0 mm 0 mps 695 mmHg 95%
05:00 +13°C° 0 mm 1 mps 696 mmHg 91%
06:00 +15°C° 0 mm 1 mps 696 mmHg 86%
07:00 +16°C° 0 mm 1 mps 697 mmHg 82%
08:00 +19°C° 0 mm 1 mps 697 mmHg 74%
09:00 +20°C° 0 mm 1 mps 697 mmHg 66%
10:00 +21°C° 0 mm 1 mps 698 mmHg 59%
11:00 +21°C° 0 mm 2 mps 697 mmHg 57%
12:00 +21°C° 0 mm 2 mps 697 mmHg 56%
13:00 +21°C° 0 mm 2 mps 697 mmHg 54%
14:00 +21°C° 0 mm 2 mps 697 mmHg 54%
15:00 +22°C° 0 mm 1 mps 697 mmHg 54%
16:00 +22°C° 0 mm 1 mps 697 mmHg 54%
17:00 +21°C° 0 mm 1 mps 696 mmHg 61%
18:00 +20°C° 0 mm 1 mps 696 mmHg 67%
19:00 +18°C° 0 mm 1 mps 696 mmHg 74%
20:00 +16°C° 0 mm 1 mps 696 mmHg 77%
21:00 +15°C° 0 mm 1 mps 696 mmHg 80%
22:00 +13°C° 0 mm 1 mps 696 mmHg 82%
23:00 +13°C° 0 mm 1 mps 696 mmHg 83%

Day after tomorrow, 5 July, Sunday

Time Temperature Precipitation Wind Pressure Humidity
00:00 +13°C° 0 mm 1 mps 695 mmHg 83%
01:00 +12°C° 0 mm 1 mps 695 mmHg 84%
02:00 +12°C° 0 mm 1 mps 695 mmHg 84%
03:00 +12°C° 0 mm 1 mps 695 mmHg 84%
04:00 +12°C° 0 mm 1 mps 695 mmHg 84%
05:00 +14°C° 0 mm 1 mps 695 mmHg 78%
06:00 +16°C° 0 mm 1 mps 696 mmHg 73%
07:00 +19°C° 0 mm 1 mps 696 mmHg 67%
08:00 +20°C° 0 mm 1 mps 696 mmHg 62%
09:00 +22°C° 0 mm 1 mps 696 mmHg 56%
10:00 +23°C° 0 mm 2 mps 697 mmHg 51%
11:00 +24°C° 0 mm 2 mps 697 mmHg 51%
12:00 +24°C° 0 mm 2 mps 696 mmHg 51%
13:00 +25°C° 0 mm 3 mps 696 mmHg 51%
14:00 +25°C° 0 mm 3 mps 696 mmHg 54%
15:00 +24°C° 0 mm 3 mps 696 mmHg 57%
16:00 +24°C° 0 mm 3 mps 695 mmHg 61%
17:00 +22°C° 0 mm 3 mps 695 mmHg 68%
18:00 +21°C° 0 mm 2 mps 695 mmHg 76%
19:00 +20°C° 0 mm 1 mps 695 mmHg 83%
20:00 +19°C° 0 mm 1 mps 695 mmHg 86%
21:00 +18°C° 0 mm 1 mps 695 mmHg 89%
22:00 +16°C° 0 mm 1 mps 695 mmHg 92%
23:00 +16°C° 0 mm 2 mps 694 mmHg 92%

6 July, Monday

Time Temperature Precipitation Wind Pressure Humidity
00:00 +15°C° 0 mm 2 mps 694 mmHg 93%
01:00 +15°C° 0 mm 2 mps 694 mmHg 93%
02:00 +15°C° 0 mm 2 mps 694 mmHg 93%
03:00 +15°C° 0 mm 2 mps 694 mmHg 94%
04:00 +14°C° 0 mm 2 mps 693 mmHg 94%
05:00 +16°C° 0 mm 2 mps 694 mmHg 88%
06:00 +18°C° 0 mm 2 mps 694 mmHg 82%
07:00 +20°C° 0 mm 2 mps 694 mmHg 76%
08:00 +21°C° 0 mm 2 mps 694 mmHg 71%
09:00 +22°C° 0 mm 3 mps 694 mmHg 67%
10:00 +24°C° 0 mm 3 mps 695 mmHg 62%
11:00 +24°C° 0 mm 3 mps 694 mmHg 60%
12:00 +25°C° 0 mm 3 mps 694 mmHg 59%
13:00 +25°C° 0 mm 3 mps 694 mmHg 57%
14:00 +25°C° 0 mm 4 mps 693 mmHg 58%
15:00 +25°C° 0 mm 4 mps 693 mmHg 58%
16:00 +25°C° 0 mm 4 mps 693 mmHg 59%
17:00 +22°C° 0 mm 3 mps 693 mmHg 66%
18:00 +21°C° 0 mm 3 mps 693 mmHg 73%
19:00 +19°C° 0 mm 2 mps 692 mmHg 81%
20:00 +18°C° 0 mm 2 mps 693 mmHg 85%
21:00 +16°C° 0 mm 2 mps 693 mmHg 90%
22:00 +15°C° 0 mm 1 mps 693 mmHg 94%
23:00 +14°C° 0 mm 1 mps 693 mmHg 93%

7 July, Tuesday

Time Temperature Precipitation Wind Pressure Humidity
00:00 +13°C° 0 mm 2 mps 693 mmHg 92%
01:00 +12°C° 0 mm 2 mps 693 mmHg 91%
02:00 +12°C° 0 mm 2 mps 694 mmHg 89%
03:00 +12°C° 0 mm 2 mps 694 mmHg 87%
04:00 +12°C° 0 mm 2 mps 694 mmHg 86%
05:00 +12°C° 0.1 mm 2 mps 694 mmHg 85%
06:00 +12°C° 0.1 mm 2 mps 695 mmHg 84%
07:00 +11°C° 0.1 mm 3 mps 695 mmHg 84%
08:00 +12°C° 0.4 mm 2 mps 695 mmHg 84%
09:00 +10°C° 0.4 mm 2 mps 695 mmHg 85%
10:00 +10°C° 0.4 mm 2 mps 695 mmHg 86%
11:00 +12°C° 1.2 mm 2 mps 695 mmHg 86%
12:00 +12°C° 1.2 mm 1 mps 695 mmHg 86%
13:00 +12°C° 1.2 mm 1 mps 695 mmHg 86%
14:00 +13°C° 0.5 mm 1 mps 695 mmHg 85%
15:00 +13°C° 0.5 mm 2 mps 696 mmHg 83%
16:00 +13°C° 0.5 mm 2 mps 696 mmHg 82%
17:00 +13°C° 0.2 mm 2 mps 696 mmHg 84%
18:00 +12°C° 0.2 mm 2 mps 696 mmHg 87%
19:00 +12°C° 0.2 mm 2 mps 696 mmHg 89%
20:00 +10°C° 0.1 mm 2 mps 696 mmHg 89%
21:00 +10°C° 0.1 mm 1 mps 696 mmHg 89%
22:00 +9°C° 0.1 mm 1 mps 696 mmHg 90%
23:00 +8°C° 0 mm 1 mps 696 mmHg 90%

8 July, Wednesday

Time Temperature Precipitation Wind Pressure Humidity
00:00 +7°C° 0 mm 1 mps 696 mmHg 90%
01:00 +7°C° 0 mm 1 mps 696 mmHg 90%
02:00 +7°C° 0 mm 1 mps 696 mmHg 91%
03:00 +7°C° 0 mm 1 mps 696 mmHg 91%
04:00 +6°C° 0 mm 1 mps 696 mmHg 91%
05:00 +8°C° 0 mm 1 mps 696 mmHg 87%
06:00 +10°C° 0 mm 1 mps 697 mmHg 84%
07:00 +10°C° 0 mm 2 mps 697 mmHg 80%
08:00 +12°C° 0 mm 2 mps 697 mmHg 73%
09:00 +13°C° 0 mm 3 mps 698 mmHg 65%
10:00 +14°C° 0 mm 3 mps 698 mmHg 58%
11:00 +14°C° 0 mm 3 mps 698 mmHg 57%
12:00 +15°C° 0 mm 4 mps 698 mmHg 56%
13:00 +15°C° 0 mm 4 mps 698 mmHg 56%
14:00 +15°C° 0 mm 4 mps 698 mmHg 56%
15:00 +15°C° 0 mm 4 mps 698 mmHg 57%
16:00 +16°C° 0 mm 3 mps 698 mmHg 57%
17:00 +14°C° 0 mm 3 mps 697 mmHg 64%
18:00 +14°C° 0 mm 2 mps 697 mmHg 71%
19:00 +13°C° 0 mm 1 mps 697 mmHg 78%
20:00 +11°C° 0 mm 1 mps 697 mmHg 81%
21:00 +10°C° 0 mm 1 mps 697 mmHg 84%
22:00 +9°C° 0 mm 1 mps 697 mmHg 87%
23:00 +8°C° 0 mm 1 mps 697 mmHg 87%
Show more